Weather History for KPOF - May, 2013

Change the Weather History Date:

Monday, May 20, 2013

  Actual Average Record
Temperature  
Mean Temperature 80 °F -  
Max Temperature 86 °F 80 °F 93 °F (1941)
Min Temperature 73 °F 57 °F 41 °F (1929)
Cooling Degree Days 14    
Growing Degree Days 30 (Base 50)    
Moisture  
Dew Point 68 °F    
Average Humidity 69    
Maximum Humidity 88    
Minimum Humidity 53    
Precipitation  
Precipitation 0.00 in - - ()
Sea Level Pressure  
Sea Level Pressure 29.84 in    
Wind  
Wind Speed 11 mph (SSW)    
Max Wind Speed 17 mph    
Max Gust Speed 22 mph    
Visibility 10 miles    
Events Thunderstorm    
Averages and records for this station are not official NWS values.
T = Trace of Precipitation, MM = Missing Value Source: NWS Daily Summary

Daily Weather History Graph

Daily Weather History Graph

Search for Another Location

Airport or City:

Trip Planner

Search our weather history database for the weather conditions in past years. The results will help you decide how hot, cold, wet, or windy it might be!

Date:

Astronomy

May. 20, 2013 Rise Set
Actual Time 5:49 AM CDT 8:06 PM CDT
Civil Twilight 5:20 AM CDT 8:35 PM CDT
Nautical Twilight 4:44 AM CDT 9:11 PM CDT
Astronomical Twilight 4:05 AM CDT 9:51 PM CDT
Moon 3:20 PM CDT (5/20) 2:37 AM CDT (5/20)
Length of Visible Light 15h 15m
Length of Day
14h 16m
Waxing Gibbous, 75% of the Moon is Illuminated
May 20
Waxing Gibbous
May 24
Full
May 31
Last Quarter
Jun 8
New
Jun 16
First Quarter

Hourly Weather History & Observations

Time (CDT) Temp. Heat Index Dew Point Humidity Pressure Visibility Wind Dir Wind Speed Gust Speed Precip Events Conditions
12:53 AM 75.9 °F - 66.9 °F 74% 29.83 in 10.0 mi South 10.4 mph - N/A   Clear
1:53 AM 75.0 °F - 68.0 °F 79% 29.83 in 10.0 mi South 12.7 mph 21.9 mph N/A   Clear
3:53 AM 75.0 °F - 68.0 °F 79% 29.82 in 10.0 mi South 11.5 mph - N/A   Clear
4:53 AM 75.0 °F - 68.0 °F 79% 29.82 in 10.0 mi South 11.5 mph 21.9 mph N/A   Clear
5:53 AM 73.9 °F - 68.0 °F 82% 29.86 in 9.0 mi SSW 8.1 mph - N/A   Clear
6:21 AM 73.4 °F - 69.8 °F 88% 29.89 in 9.0 mi SSW 5.8 mph - N/A   Mostly Cloudy
7:53 AM 77.0 °F - 69.1 °F 76% 29.87 in 10.0 mi SSW 13.8 mph 20.7 mph N/A   Mostly Cloudy
8:53 AM 77.0 °F - 69.1 °F 76% 29.90 in 10.0 mi SW 11.5 mph - N/A   Overcast
9:13 AM 78.8 °F - 69.8 °F 74% 29.91 in 10.0 mi SSW 10.4 mph 18.4 mph N/A   Mostly Cloudy
9:53 AM 80.1 °F 82.9 °F 69.1 °F 69% 29.88 in 10.0 mi SW 13.8 mph 20.7 mph N/A   Mostly Cloudy
10:53 AM 80.1 °F 82.7 °F 68.0 °F 67% 29.88 in 10.0 mi SSW 17.3 mph 21.9 mph N/A   Overcast
11:53 AM 80.1 °F 82.7 °F 68.0 °F 67% 29.87 in 10.0 mi SW 8.1 mph - N/A   Overcast
12:53 PM 82.0 °F 85.5 °F 69.1 °F 65% 29.87 in 10.0 mi SW 8.1 mph - N/A   Overcast
1:53 PM 82.0 °F 84.9 °F 68.0 °F 62% 29.86 in 10.0 mi WSW 6.9 mph - N/A   Mostly Cloudy
2:53 PM 84.0 °F 87.8 °F 69.1 °F 61% 29.85 in 10.0 mi SW 10.4 mph - N/A   Mostly Cloudy
3:53 PM 84.9 °F 88.8 °F 69.1 °F 59% 29.82 in 10.0 mi SW 9.2 mph - N/A   Partly Cloudy
4:53 PM 86.0 °F 89.4 °F 68.0 °F 55% 29.79 in 10.0 mi SSW 10.4 mph 18.4 mph N/A   Mostly Cloudy
5:53 PM 86.0 °F 88.8 °F 66.9 °F 53% 29.75 in 10.0 mi South 12.7 mph 20.7 mph N/A   Partly Cloudy
6:53 PM 84.9 °F 87.6 °F 66.9 °F 55% 29.76 in 10.0 mi South 10.4 mph - N/A   Clear
7:53 PM 84.0 °F 87.0 °F 68.0 °F 58% 29.75 in 10.0 mi South 10.4 mph - N/A   Clear
9:53 PM 81.0 °F 84.1 °F 69.1 °F 67% 29.81 in 10.0 mi South 12.7 mph - N/A   Mostly Cloudy
10:34 PM 80.6 °F 83.9 °F 69.8 °F 70% 29.83 in 10.0 mi South 12.7 mph 21.9 mph N/A Thunderstorm Clear
10:53 PM 81.0 °F 84.1 °F 69.1 °F 67% 29.81 in 10.0 mi South 12.7 mph 20.7 mph N/A   Clear
11:53 PM 80.1 °F 82.9 °F 69.1 °F 69% 29.80 in 10.0 mi South 12.7 mph 20.7 mph N/A   Scattered Clouds